Flag for France Weather past 2 weeks in Tours, France

Now
79 °F

Clear.


Feels Like: 79 °F
Forecast: 62 / 82 °F
Wind: 2 mph from North

Location: Tours Airport

Current Time: Jul 31, 2014 at 4:37:42 PM

Latest Report: Jul 31, 2014 at 4:00 PM


Visibility: N/A

Pressure: 29.95 "Hg

Humidity: 45%

Dew point: 55 °F

Location of ToursLocation

Historic Weather in Tours — Graph

°F

Tours temperature yesterday

Maximum temperature yesterday: 81 °F (at 5:00 PM)
Minimum temperature yesterday: 55 °F (at 7:00 AM)
Average temperature yesterday: 68 °F

Past Weeks' High & Low Weather Summary

 TemperatureHumidityPressure
High91 °F (Jul 17, 5:00 PM)100% (Jul 20, 7:30 AM)30.15 "Hg (Jul 20, 7:30 AM)
Low55 °F (Jul 29, 6:30 AM)29% (Jul 24, 7:00 PM)29.74 "Hg (Jul 19, 3:00 AM)
Average72 °F69%29.97 "Hg
* Reported Jul 16 3:00 PM — Jul 31 3:30 PM, Tours, Weather by CustomWeather, © 2014

Note: Actual official high and low records may vary slightly from our data, if they occured in-between our weather recording intervals... More about our weather records

Advertising

Tours weather history for previous 24 hours

 ConditionsComfort  
Time TempWeatherWind HumidityBarometerVisibility
3:30 PM
Jul 31
79 °FClear.3 mph45%29.95 "HgN/A
3:00 PM77 °FClear.5 mph47%29.98 "HgN/A
2:30 PM79 °FClear.3 mph45%29.98 "HgN/A
2:00 PM79 °FClear.3 mph45%29.98 "HgN/A
1:30 PM81 °FPartly sunny.2 mph45%29.98 "HgN/A
1:00 PM77 °FPartly sunny.2 mph47%29.98 "HgN/A
12:30 PM77 °FClear.3 mph54%30.01 "HgN/A
12:00 PM75 °FClear.5 mph54%30.01 "HgN/A
11:30 AM73 °FClear.5 mph53%30.01 "HgN/A
11:00 AM73 °FClear.5 mph57%30.01 "HgN/A
10:30 AM72 °FClear.3 mph57%30.01 "HgN/A
10:00 AM70 °FClear.5 mph60%30.01 "HgN/A
9:30 AM68 °FClear.5 mph64%30.01 "HgN/A
9:00 AM66 °FClear.5 mph68%30.01 "HgN/A
8:30 AM64 °FClear.3 mph73%30.01 "HgN/A
8:00 AM63 °FSunny.2 mph73%30.01 "Hg10 mi
7:30 AM61 °FClear.2 mph77%30.01 "Hg10 mi
7:00 AM59 °FClear.1 mph82%30.01 "Hg10 mi
6:30 AM61 °FClear.3 mph77%30.01 "Hg10 mi
6:00 AM61 °FClear.2 mph77%30.01 "Hg10 mi
5:30 AM61 °FClear.3 mph77%30.01 "Hg10 mi
4:30 AM61 °FClear.3 mph83%30.01 "HgN/A
4:00 AM61 °FClear.2 mph83%30.04 "HgN/A
3:30 AM61 °FClear.2 mph83%30.04 "HgN/A
3:00 AM61 °FClear.3 mph83%30.04 "HgN/A
2:30 AM63 °FClear.3 mph77%30.01 "HgN/A
2:00 AM63 °FClear.3 mph83%30.01 "Hg10 mi
1:00 AM64 °FClear.5 mph78%30.01 "Hg10 mi
12:00 AM66 °FClear.2 mph73%30.01 "Hg10 mi
11:00 PM
Jul 30
68 °FClear.3 mph69%30.01 "Hg10 mi
10:30 PM70 °FSunny.3 mph64%30.01 "Hg10 mi
10:00 PM70 °FSunny.3 mph64%30.01 "Hg10 mi
9:30 PM72 °FSunny.5 mph61%30.01 "Hg10 mi
9:00 PM75 °FSunny.5 mph54%30.01 "Hg10 mi
8:00 PM79 °FPassing clouds.8 mph45%29.98 "HgN/A
7:30 PM79 °FClear.7 mph45%29.98 "HgN/A
7:00 PM79 °FClear.7 mph39%30.01 "HgN/A
6:30 PM79 °FClear.7 mph39%30.01 "HgN/A
6:00 PM79 °FClear.7 mph39%30.01 "HgN/A
5:30 PM79 °FClear.8 mph42%30.01 "HgN/A
5:00 PM81 °FClear.6 mph39%30.01 "HgN/A
4:30 PM79 °FClear.6 mph42%30.01 "HgN/A
4:00 PM79 °FClear.6 mph42%30.01 "HgN/A
Weather by CustomWeather, © 2014

See weather overviewHow to use our weather pages